Weather Roundup
Issued by NWS Corpus Christi, TX

Home | Current Version | Previous Version | Text Only | Print | Product List | Glossary On
Versions: 1 2 3 4 5 6 7 8 9 10 11 12 13 14 15 16 17 18 19 20 21 22 23 24 25 26 27 28 29 30 31 32 33 34 35 36 37 38 39 40 41 42 43 44 45 46 47 48 49 50
000
ASUS44 KCRP 050310
HRRCRP

SOUTH TEXAS REGIONAL WEATHER ROUNDUP
NATIONAL WEATHER SERVICE CORPUS CHRISTI TX
1000 PM CDT MON MAY 04 2015


TXZ229>244-050400-
...CORPUS CHRISTI AREA OBSERVATIONS...

CITY           SKY/WX    TMP DP  RH WIND       PRES   REMARKS
CORPUS CHRISTI MOCLDY    75  68  78 SE23      30.00R
NAS CORPUS CHR MOCLDY    75  70  84 SE17G26   30.01R
ROCKPORT       PTCLDY    75  68  78 E17       30.01R
KINGSVILLE NAS MOCLDY    75  72  90 E13       29.99R
ALICE          MOCLDY    75  68  78 SE12      29.99R
FALFURRIAS     CLOUDY    74  69  81 E10       29.98R
$$

...VICTORIA AREA OBSERVATIONS...

CITY           SKY/WX    TMP DP  RH WIND       PRES   REMARKS
VICTORIA       CLEAR     70  66  87 E9        30.03R
BEEVILLE       FAIR      72  68  89 E10       30.01R
PLEASANTON     RAIN      73  64  74 E9G21     30.00R
SAN ANTONIO    PTCLDY    73  63  70 SE16      30.01R
$$

...LAREDO AREA OBSERVATIONS...

CITY           SKY/WX    TMP DP  RH WIND       PRES   REMARKS
LAREDO         CLOUDY    76  66  71 E20       29.95R
COTULLA        CLOUDY    76  63  64 SE21G33   29.96R
DEL RIO        CLOUDY    74  65  73 SE18G30   29.90R
MCALLEN        MOCLDY    78  69  73 E12       29.96R
HEBBRONVILLE     N/A     73  66  78 E15       29.98R
$$

...OTHER TEXAS OBSERVATIONS...

CITY           SKY/WX    TMP DP  RH WIND       PRES   REMARKS
BROWNSVILLE    MOCLDY    77  70  79 E13       29.97R
HOUSTON        PTCLDY    69  62  78 SE7       30.06R
COL. STATION   CLEAR     72  55  55 SE10      30.04R
AUSTIN         CLOUDY    72  61  68 S10       30.01R
WACO           CLEAR     70  56  61 SE9       30.02R
FORT WORTH     MOCLDY    70  53  54 SE10      30.01R
WICHITA FALLS  CLOUDY    69  59  70 SE10      29.98R
LUBBOCK        TSTM      58  56  93 E8        30.02R
EL PASO        MOCLDY    73  48  41 N10       29.84R
$$

...MARINE OBSERVATIONS...

STATION/POSITION TIME  SKY/WX   TEMP    WIND        PRES    VSBY  WAVE   SWELL
                                AIR SEA DIR/SP/G                  HT/PER HT/PER
                 (UTC)          (F)     (DEG/KT/KT) (MB)    (MI)  (FT/S) (FT/S)
PORT ARANSAS     0300            75 76   90/ 18/ 22 1016.8R
BUOY 90 E PORT A 0250            76 75  100/ 16/ 19 1017.1R         4/ 5
BUOY 45 SE BAFFI 0250            75 75  110/ 16/ 19 1015.4R         4/ 6
BUOY 200 E PT IS 0250            77 77   90/ 16/ 17 1016.2R         2/ 5
BUOY 15 E GALVES 0250            75 75  120/ 14/ 16 1017.6R         2/ 4
$$



USA.gov is the U.S. government's official web portal to all federal, state and local government web resources and services.